Weather in Akbulak

Russia / Orenburg Oblast     51°00′05″N   55°36′58″E
temp.,
°C
wind,
m/s
gust,
m/s
humid.,
%
clouds,
%
prec.,
mm/h
press.,
hPa
HPBL,
m
27 february, sat
sat2723:00−16se5109583 0.1 1020183
02:00−14se6119494 0.0 1018304
05:00−12sse7139397 0.1 1014373
08:00−10sse91594100 2.3 1009502
11:00−6s81494100 6.1 1006590
14:00−2s71394100 0.6 1004409
17:00+1wsw612100100 0.8 1003423
20:00+1sw4997100 0.0 1003427
28 february, sun
sun2823:000sw4997100 0.1 1003410
02:000wsw6998100 0.3 1001522
05:000wsw61097100 0.7 1001608
08:00−2sw51194100 0.4 1001455
11:00−3wsw81195100 1.3 1002579
14:00−8wsw71092100 0.1 1004497
17:00−8w71092100 0.2 1007514
20:00−11wsw51094100 0.1 1010289
1 march, mon
mon123:00−14wsw4896100 0.1 1012168
02:00−14wsw4696100 0.1 1014186
05:00−17wsw469796 0.1 1015101
08:00−19wsw3499100 0.1 101779
11:00−17wsw4596100 0.1 1019204
14:00−14wsw459499 0.0 1019298
17:00−14w469499 0.1 1020369
20:00−17wsw469799 0.1 1021117
2 march, tue
tue223:00−19w469999 0.1 102391
02:00−21w3410098 0.0 102346
05:00−23w349998 0.1 102351
08:00−24wsw34100100 0.0 102352
11:00−21wsw359899 0.1 1023179
14:00−18sw469374 0.0 1022281
17:00−17sw589275 0.0 1020317
20:00−19ssw489638 0.0 1019142
3 march, wed
wed323:00−13ssw6119369 0.1 1016336
02:00−8ssw81593100 0.4 1012437
05:00−4ssw91694100 1.3 1009625
08:00−4ssw91694100 1.3 1007720
11:00−2ssw101594100 2.3 1006843
14:00−1ssw91396100 0.9 1005916
17:000sw71195100 1.8 1004783
20:00−2wsw61097100 1.0 1004523